When you browse on this site, cookies collect data to enhance your experience and personalize the content and advertising you see.
Visit our Privacy Policy to learn more. By continuing to use the site, you agree to this use of cookies and data.
  • în România
  • Lista ţărilor
  • Pe 7 zile
  • Temperatura apei
  • Meteo pe hartă
  • Widget-uri
  • user-avatar
    Intrare

    Meteo pe oră la Castlebar

    Astăzi, 28 Februarie, Vineri

    Timp Temperatura Precipitaţii Vânt Presiune Umiditate
    00:00 +3°C° 0.3 mm 4 m/s 748 mmHg 88%
    01:00 +3°C° 0.3 mm 4 m/s 747 mmHg 92%
    02:00 +3°C° 0.3 mm 4 m/s 746 mmHg 95%
    03:00 +3°C° 1 mm 4 m/s 744 mmHg 95%
    04:00 +3°C° 1 mm 4 m/s 742 mmHg 96%
    05:00 +2°C° 0 mm 5 m/s 741 mmHg 97%
    06:00 +4°C° 0.7 mm 4 m/s 740 mmHg 97%
    07:00 +5°C° 0.7 mm 4 m/s 738 mmHg 98%
    08:00 +6°C° 0.7 mm 4 m/s 737 mmHg 98%
    09:00 +7°C° 0.3 mm 5 m/s 736 mmHg 96%
    10:00 +8°C° 0.3 mm 6 m/s 736 mmHg 93%
    11:00 +9°C° 0 mm 8 m/s 735 mmHg 90%
    12:00 +9°C° 0.1 mm 8 m/s 735 mmHg 87%
    13:00 +9°C° 0.1 mm 8 m/s 734 mmHg 84%
    14:00 +9°C° 0.1 mm 8 m/s 734 mmHg 81%
    15:00 +8°C° 0 mm 6 m/s 733 mmHg 85%
    16:00 +7°C° 0 mm 5 m/s 732 mmHg 89%
    17:00 +7°C° 0 mm 3 m/s 731 mmHg 93%
    18:00 +7°C° 1.9 mm 4 m/s 730 mmHg 93%
    19:00 +7°C° 1.9 mm 5 m/s 729 mmHg 94%
    20:00 +8°C° 1.9 mm 6 m/s 728 mmHg 94%
    21:00 +5°C° 1.6 mm 6 m/s 728 mmHg 90%
    22:00 +4°C° 1.6 mm 6 m/s 728 mmHg 87%
    23:00 +3°C° 1.6 mm 7 m/s 727 mmHg 83%

    Mâine, 29 Februarie, Sâmbătă

    Timp Temperatura Precipitaţii Vânt Presiune Umiditate
    00:00 +2°C° 0 mm 7 m/s 727 mmHg 81%
    01:00 0°C° 0 mm 7 m/s 727 mmHg 78%
    02:00 -1°C° 0 mm 7 m/s 727 mmHg 76%
    03:00 -1°C° 0.1 mm 7 m/s 726 mmHg 75%
    04:00 -1°C° 0.1 mm 7 m/s 726 mmHg 75%
    05:00 -1°C° 0.1 mm 8 m/s 725 mmHg 74%
    06:00 -2°C° 0.5 mm 10 m/s 723 mmHg 79%
    07:00 -2°C° 0.5 mm 12 m/s 720 mmHg 85%
    08:00 -2°C° 0.5 mm 14 m/s 718 mmHg 90%
    09:00 -1°C° 1.6 mm 14 m/s 717 mmHg 87%
    10:00 0°C° 1.6 mm 14 m/s 717 mmHg 83%
    11:00 +1°C° 1.6 mm 14 m/s 716 mmHg 80%
    12:00 +3°C° 0.4 mm 14 m/s 716 mmHg 79%
    13:00 +3°C° 0.4 mm 13 m/s 716 mmHg 77%
    14:00 +3°C° 0.4 mm 13 m/s 717 mmHg 76%
    15:00 +1°C° 1.7 mm 14 m/s 718 mmHg 80%
    16:00 +1°C° 1.7 mm 15 m/s 720 mmHg 84%
    17:00 +1°C° 1.7 mm 16 m/s 721 mmHg 87%
    18:00 0°C° 0.5 mm 15 m/s 722 mmHg 83%
    19:00 0°C° 0.5 mm 14 m/s 723 mmHg 78%
    20:00 0°C° 0.5 mm 13 m/s 724 mmHg 73%
    21:00 0°C° 0 mm 12 m/s 725 mmHg 73%
    22:00 +1°C° 0 mm 11 m/s 725 mmHg 73%
    23:00 +1°C° 0 mm 11 m/s 726 mmHg 73%

    Poimâine, 1 Martie, Duminică

    Timp Temperatura Precipitaţii Vânt Presiune Umiditate
    00:00 +1°C° 0.1 mm 11 m/s 726 mmHg 72%
    01:00 +1°C° 0.1 mm 10 m/s 727 mmHg 72%
    02:00 +1°C° 0.1 mm 10 m/s 727 mmHg 71%
    03:00 +1°C° 0.1 mm 10 m/s 727 mmHg 72%
    04:00 +1°C° 0.1 mm 10 m/s 727 mmHg 72%
    05:00 +1°C° 0.1 mm 9 m/s 728 mmHg 72%
    06:00 +1°C° 0.1 mm 10 m/s 728 mmHg 71%
    07:00 +1°C° 0.1 mm 10 m/s 729 mmHg 70%
    08:00 +1°C° 0.1 mm 11 m/s 729 mmHg 68%
    09:00 +2°C° 0.1 mm 11 m/s 729 mmHg 69%
    10:00 +2°C° 0.1 mm 11 m/s 730 mmHg 70%
    11:00 +2°C° 0.1 mm 11 m/s 730 mmHg 71%
    12:00 +2°C° 0.2 mm 11 m/s 731 mmHg 70%
    13:00 +2°C° 0.2 mm 11 m/s 731 mmHg 68%
    14:00 +2°C° 0.2 mm 10 m/s 731 mmHg 67%
    15:00 +2°C° 0.1 mm 9 m/s 732 mmHg 69%
    16:00 +2°C° 0.1 mm 7 m/s 732 mmHg 72%
    17:00 +1°C° 0.1 mm 6 m/s 732 mmHg 74%
    18:00 +1°C° 0.1 mm 6 m/s 732 mmHg 75%
    19:00 +1°C° 0.1 mm 5 m/s 733 mmHg 76%
    20:00 0°C° 0.1 mm 5 m/s 733 mmHg 77%
    21:00 0°C° 0.1 mm 5 m/s 733 mmHg 76%
    22:00 0°C° 0.1 mm 5 m/s 733 mmHg 76%
    23:00 0°C° 0.1 mm 5 m/s 734 mmHg 75%

    2 Martie, Luni

    Timp Temperatura Precipitaţii Vânt Presiune Umiditate
    00:00 0°C° 0 mm 4 m/s 734 mmHg 76%
    01:00 0°C° 0 mm 4 m/s 734 mmHg 76%
    02:00 0°C° 0 mm 4 m/s 734 mmHg 77%
    03:00 0°C° 0 mm 4 m/s 735 mmHg 77%
    04:00 0°C° 0 mm 4 m/s 735 mmHg 78%
    05:00 0°C° 0 mm 5 m/s 735 mmHg 78%
    06:00 0°C° 0.1 mm 5 m/s 736 mmHg 76%
    07:00 +1°C° 0.1 mm 5 m/s 736 mmHg 74%
    08:00 +2°C° 0.1 mm 6 m/s 737 mmHg 71%
    09:00 +2°C° 0.1 mm 6 m/s 738 mmHg 67%
    10:00 +3°C° 0.1 mm 7 m/s 738 mmHg 64%
    11:00 +4°C° 0.1 mm 8 m/s 739 mmHg 60%
    12:00 +4°C° 0.2 mm 8 m/s 739 mmHg 60%
    13:00 +4°C° 0.2 mm 8 m/s 739 mmHg 61%
    14:00 +4°C° 0.2 mm 8 m/s 739 mmHg 62%
    15:00 +3°C° 0.1 mm 7 m/s 740 mmHg 65%
    16:00 +2°C° 0.1 mm 6 m/s 740 mmHg 69%
    17:00 +1°C° 0.1 mm 6 m/s 741 mmHg 72%
    18:00 +1°C° 0.1 mm 6 m/s 741 mmHg 74%
    19:00 +1°C° 0.1 mm 6 m/s 742 mmHg 77%
    20:00 -1°C° 0.1 mm 6 m/s 743 mmHg 79%
    21:00 +1°C° 0.1 mm 6 m/s 744 mmHg 78%
    22:00 +1°C° 0.1 mm 5 m/s 744 mmHg 77%
    23:00 +1°C° 0.1 mm 5 m/s 745 mmHg 77%

    3 Martie, Marţi

    Timp Temperatura Precipitaţii Vânt Presiune Umiditate
    00:00 +1°C° 0.1 mm 5 m/s 745 mmHg 77%
    01:00 +1°C° 0.1 mm 5 m/s 745 mmHg 77%
    02:00 -1°C° 0.1 mm 6 m/s 745 mmHg 77%
    03:00 +1°C° 0.1 mm 5 m/s 745 mmHg 78%
    04:00 +1°C° 0.1 mm 5 m/s 745 mmHg 78%
    05:00 +1°C° 0.1 mm 5 m/s 745 mmHg 78%
    06:00 +1°C° 0 mm 5 m/s 745 mmHg 78%
    07:00 +2°C° 0 mm 5 m/s 745 mmHg 77%
    08:00 +2°C° 0 mm 5 m/s 745 mmHg 76%
    09:00 +3°C° 0 mm 5 m/s 745 mmHg 72%
    10:00 +5°C° 0 mm 5 m/s 745 mmHg 67%
    11:00 +5°C° 0 mm 5 m/s 745 mmHg 63%
    12:00 +6°C° 0 mm 5 m/s 745 mmHg 62%
    13:00 +6°C° 0 mm 4 m/s 745 mmHg 62%
    14:00 +6°C° 0 mm 4 m/s 745 mmHg 61%
    15:00 +5°C° 0 mm 3 m/s 745 mmHg 65%
    16:00 +4°C° 0 mm 3 m/s 745 mmHg 70%
    17:00 +4°C° 0 mm 2 m/s 745 mmHg 74%
    18:00 +3°C° 0 mm 2 m/s 745 mmHg 78%
    19:00 +3°C° 0 mm 2 m/s 746 mmHg 81%
    20:00 +3°C° 0 mm 1 m/s 746 mmHg 85%
    21:00 +2°C° 0 mm 2 m/s 747 mmHg 86%
    22:00 +2°C° 0 mm 2 m/s 747 mmHg 87%
    23:00 +2°C° 0 mm 2 m/s 748 mmHg 87%

    4 Martie, Miercuri

    Timp Temperatura Precipitaţii Vânt Presiune Umiditate
    00:00 +2°C° 0 mm 2 m/s 748 mmHg 87%
    01:00 +2°C° 0 mm 2 m/s 748 mmHg 87%
    02:00 +1°C° 0 mm 3 m/s 749 mmHg 87%
    03:00 +2°C° 0 mm 2 m/s 749 mmHg 85%
    04:00 +2°C° 0 mm 2 m/s 750 mmHg 83%
    05:00 +2°C° 0 mm 2 m/s 750 mmHg 81%
    06:00 +2°C° 0 mm 2 m/s 751 mmHg 79%
    07:00 +3°C° 0 mm 2 m/s 751 mmHg 77%
    08:00 +4°C° 0 mm 2 m/s 752 mmHg 74%
    09:00 +5°C° 0.1 mm 2 m/s 752 mmHg 70%
    10:00 +5°C° 0.1 mm 3 m/s 752 mmHg 66%
    11:00 +7°C° 0.1 mm 3 m/s 752 mmHg 62%
    12:00 +6°C° 0 mm 4 m/s 752 mmHg 61%
    13:00 +6°C° 0 mm 4 m/s 752 mmHg 61%
    14:00 +6°C° 0 mm 4 m/s 752 mmHg 60%
    15:00 +5°C° 0 mm 4 m/s 752 mmHg 66%
    16:00 +4°C° 0 mm 3 m/s 752 mmHg 73%
    17:00 +3°C° 0 mm 3 m/s 752 mmHg 79%
    18:00 +4°C° 0 mm 2 m/s 752 mmHg 82%
    19:00 +3°C° 0 mm 2 m/s 752 mmHg 84%
    20:00 +3°C° 0 mm 1 m/s 753 mmHg 87%
    21:00 +3°C° 0 mm 1 m/s 753 mmHg 87%
    22:00 +3°C° 0 mm 1 m/s 753 mmHg 87%
    23:00 +2°C° 0 mm 1 m/s 753 mmHg 87%
    Arată mai mult